This demonstration page uses our WeatherBlox Daily Observations layout. Learn more.

Left ArrowRight Arrow

39.51506, -84.39828

Hourly Observations for March 21, 2015

Temp ( °F °C ) Dew Point ( °F °C ) Humidity (%) Winds ( mph kmh ) Pressure ( in mb ) Visibility ( mi km ) Precip ( " mm )
12:15 am 00:15 Cloudy 49 9.6 41 5 73 73 WSW 5 7 30.15 1021 10 16 N/A
12:35 am 00:35 Cloudy 49 9.6 41 5 73 73 WSW 3 6 30.15 1021 10 16 N/A
12:55 am 00:55 Cloudy 49 9.3 41 4.8 74 74 SW 3 6 30.12 1020 10 16 N/A
1:15 am 01:15 Cloudy 47 8.3 39 4.1 75 75 WSW 3 6 30.15 1021 10 16 N/A
1:35 am 01:35 Cloudy 47 8.2 40 4.6 78 78 WSW 3 6 30.12 1020 10 16 N/A
1:55 am 01:55 Cloudy 47 8.2 40 4.4 77 77 WSW 5 7 30.12 1020 10 16 N/A
2:15 am 02:15 Cloudy 47 8.2 40 4.5 78 78 N N/A 30.15 1021 7 11 N/A
2:35 am 02:35 Cloudy 47 8.2 40 4.3 77 77 SW 3 6 30.15 1021 10 16 N/A
2:55 am 02:55 Cloudy 47 8.2 40 4.6 78 78 WSW 3 6 30.15 1021 10 16 N/A
3:15 am 03:15 Cloudy 47 8.2 40 4.7 79 79 N N/A 30.15 1021 10 16 N/A
3:35 am 03:35 Cloudy 47 8.2 40 4.2 76 76 WSW 5 7 30.12 1020 10 16 N/A
3:55 am 03:55 Cloudy 47 8.2 40 4.6 78 78 WSW 5 7 30.12 1020 10 16 N/A
4:15 am 04:15 Cloudy 47 8.2 40 4.4 77 77 SW 3 6 30.12 1020 10 16 N/A
4:35 am 04:35 Cloudy 47 8.2 40 4.5 78 78 SW 5 7 30.12 1020 10 16 N/A
4:55 am 04:55 Cloudy 46 7.5 39 4 79 79 SW 6 9 30.12 1020 10 16 N/A
5:15 am 05:15 Mostly Cloudy 44 6.8 38 3.3 79 79 SW 7 11 30.12 1020 10 16 N/A
5:35 am 05:35 Mostly Cloudy 44 6.5 37 3 79 79 SW 8 13 30.12 1020 10 16 N/A
5:55 am 05:55 Partly Cloudy 42 5.5 36 2.3 80 80 SSW 7 11 30.09 1019 10 16 N/A
6:15 am 06:15 Clear 42 5.3 36 2.4 82 82 SW 8 13 30.09 1019 10 16 N/A
6:35 am 06:35 Clear 40 4.7 36 2.2 84 84 SW 7 11 30.09 1019 10 16 N/A
6:55 am 06:55 Clear 40 4.5 36 2 84 84 SW 7 11 30.09 1019 7 11 N/A
7:15 am 07:15 Clear 42 5.5 37 2.8 83 83 W 3 6 30.12 1020 10 16 N/A
7:35 am 07:35 Clear 41 4.9 36 2.1 82 82 SW 6 9 30.12 1020 10 16 N/A
7:55 am 07:55 Sunny 40 4.3 35 1.6 83 83 SW 6 9 30.15 1021 7 11 N/A
8:15 am 08:15 Sunny 42 5.3 37 2.6 83 83 SSW 7 11 30.12 1020 7 11 N/A
8:35 am 08:35 Sunny 43 6.1 38 3.2 82 82 SSW 6 9 30.12 1020 7 11 N/A
8:55 am 08:55 Sunny 44 6.8 39 3.7 81 81 SW 9 15 30.12 1020 7 11 N/A
9:15 am 09:15 Sunny 47 8.2 40 4.7 79 79 SW 10 17 30.12 1020 7 11 N/A
9:35 am 09:35 Sunny 49 9.6 42 5.6 76 76 SW 12 19 30.12 1020 10 16 N/A
9:55 am 09:55 Sunny 49 9.6 41 5.2 74 74 SW 16 26 30.12 1020 10 16 N/A
10:15 am 10:15 Sunny 49 9.6 40 4.4 70 70 SW 12 19 30.12 1020 10 16 N/A
10:35 am 10:35 Sunny 51 10.4 40 4.5 67 67 SW 14 22 30.12 1020 10 16 N/A
10:55 am 10:55 Sunny 55 12.5 42 5.7 64 64 SSW 16 26 30.12 1020 10 16 N/A
11:15 am 11:15 Sunny 55 12.5 42 5.4 62 62 SW 12 19 30.12 1020 10 16 N/A
11:35 am 11:35 Sunny 55 12.5 40 4.6 59 59 SW 14 22 30.12 1020 10 16 N/A
11:55 am 11:55 Sunny 55 12.5 40 4.2 57 57 SW 12 19 30.12 1020 10 16 N/A
12:15 pm 12:15 Sunny 57 13.8 40 4.6 54 54 SSW 12 19 30.12 1020 10 16 N/A
12:35 pm 12:35 Sunny 58 14.7 41 4.9 52 52 SSW 12 19 30.09 1019 10 16 N/A
12:55 pm 12:55 Sunny 60 15.7 39 3.8 45 45 WSW 15 24 30.09 1019 10 16 N/A
1:15 pm 13:15 Sunny 61 16 38 3.3 43 43 SW 17 28 30.09 1019 10 16 N/A
1:35 pm 13:35 Sunny 62 16.8 38 3.2 40 40 W 14 22 30.06 1018 10 16 N/A
1:55 pm 13:55 Sunny 63 17 38 3.2 40 40 W 17 28 30.06 1018 10 16 N/A
2:15 pm 14:15 Sunny 64 17.9 39 3.7 39 39 W 15 24 30.06 1018 10 16 N/A
2:35 pm 14:35 Sunny 64 18 38 3.5 38 38 WNW 13 20 30.06 1018 10 16 N/A
2:55 pm 14:55 Sunny 65 18.6 39 3.9 38 38 WNW 14 22 30.03 1017 10 16 N/A
3:15 pm 15:15 Sunny 66 19.1 39 4 37 37 W 17 28 30.03 1017 10 16 N/A
3:35 pm 15:35 Sunny 67 19.5 40 4.2 37 37 W 14 22 30.03 1017 10 16 N/A
3:55 pm 15:55 Sunny 67 19.5 36 2.2 32 32 WNW 17 28 30.03 1017 10 16 N/A
4:15 pm 16:15 Sunny 67 19.5 36 2.4 32 32 W 9 15 30.03 1017 10 16 N/A
4:35 pm 16:35 Sunny 67 19.5 37 2.5 32 32 WNW 14 22 30.03 1017 10 16 N/A
4:55 pm 16:55 Sunny 67 19.5 35 1.9 31 31 W 14 22 30.03 1017 10 16 N/A
5:15 pm 17:15 Partly Cloudy 67 19.5 36 2.2 32 32 WNW 15 24 30.03 1017 10 16 N/A
5:35 pm 17:35 Sunny 65 18.3 32 -0.2 29 29 NW 14 22 30.03 1017 10 16 N/A
5:55 pm 17:55 Sunny 64 18 33 0.3 30 30 NW 16 26 30.03 1017 10 16 N/A
6:15 pm 18:15 Sunny 62 16.8 32 0.1 32 32 NW 10 17 30.03 1017 10 16 N/A
6:35 pm 18:35 Sunny 61 16 36 2 39 39 NNW 16 26 30.09 1019 10 16 N/A
6:55 pm 18:55 Sunny 60 15.3 39 3.9 47 47 N 10 17 30.09 1019 10 16 N/A
7:15 pm 19:15 Sunny 58 14.7 40 4.4 50 50 N 10 17 30.09 1019 10 16 N/A
7:35 pm 19:35 Sunny 57 13.8 38 3.3 49 49 N N/A 30.12 1020 10 16 N/A
7:55 pm 19:55 Clear 55 12.5 37 2.9 52 52 N 6 9 30.12 1020 10 16 N/A
8:15 pm 20:15 Clear 55 12.5 38 3.2 53 53 N 8 13 30.12 1020 10 16 N/A
8:35 pm 20:35 Clear 55 12.5 39 3.7 55 55 N 7 11 30.12 1020 10 16 N/A
8:55 pm 20:55 Clear 52 11 37 3 58 58 N 5 7 30.15 1021 10 16 N/A
9:15 pm 21:15 Clear 50 10.1 37 2.5 60 60 N 5 7 30.15 1021 10 16 N/A
9:35 pm 21:35 Clear 49 9.6 37 2.7 62 62 N 5 7 30.18 1022 10 16 N/A
9:55 pm 21:55 Clear 49 9.6 38 3.3 65 65 N 7 11 30.15 1021 10 16 N/A
10:15 pm 22:15 Clear 49 9.6 38 3.5 66 66 N 6 9 30.15 1021 10 16 N/A
10:35 pm 22:35 Clear 49 9.6 38 3.4 66 66 N 7 11 30.18 1022 10 16 N/A
10:55 pm 22:55 Clear 49 9.6 37 2.9 63 63 N 5 7 30.18 1022 10 16 N/A
11:15 pm 23:15 Clear 49 9.6 37 2.7 62 62 NNE 5 7 30.18 1022 10 16 N/A
11:35 pm 23:35 Clear 47 8.2 33 0.3 58 58 N 10 17 30.18 1022 10 16 N/A
11:55 pm 23:55 Clear 47 8.2 28 -2.3 48 48 N 9 15 30.18 1022 10 16 N/A

Powered by AerisWeather